Theta_e
355 354 356 357 359 358 358 356 356 355 356 355 355 355 356 359 356 356 357 356 356 357 357 357 359 359 359 359 359 357 357 357 357 356 359 358 356 357 357 357 357 357 357 357 359 358 358 357 356 357 358 356 353 354 353 353 350 352 352 354 354 357 352 346 341 343 346 352 354 353 354 353 348 347 347 348 349 351 353 352 352 349 347 345 345
354 354 356 356 356 357 358 357 356 355 355 354 354 354 355 356 356 355 356 355 356 355 357 358 359 358 359 358 357 357 357 357 358 357 359 358 357 360 359 357 356 356 355 355 358 360 358 354 355 356 356 354 354 354 353 353 350 349 350 351 348 349 353 348 343 342 341 345 345 348 348 351 345 346 345 347 348 352 351 351 351 347 346 346 344
354 354 355 353 354 356 357 356 356 354 354 354 353 353 354 355 356 355 354 354 355 353 357 357 358 357 357 357 356 356 356 357 357 357 357 358 358 358 358 358 358 357 357 357 357 357 356 354 355 355 358 355 354 354 355 354 352 349 347 349 348 348 350 351 347 344 343 341 342 344 343 344 344 345 348 350 351 351 349 347 345 347 348 346 348
353 353 353 352 352 354 355 356 355 354 352 352 353 352 353 354 357 354 354 354 354 354 355 356 358 357 356 356 356 356 356 357 357 357 358 357 357 357 357 356 358 359 359 358 358 356 354 352 353 354 354 352 352 352 353 352 350 349 349 349 350 348 349 352 351 346 340 338 335 338 341 341 343 347 350 351 348 345 344 345 345 346 348 352 353
352 352 352 352 350 352 353 355 354 354 352 351 352 353 353 353 355 354 353 353 355 354 355 354 356 357 356 355 355 355 355 356 357 357 358 359 358 358 357 357 358 359 360 359 364 357 355 354 353 353 353 351 349 350 352 349 349 349 347 346 350 351 352 350 347 346 339 335 337 338 341 342 345 347 348 344 345 345 345 344 346 348 351 353 354
351 351 351 351 349 349 350 352 353 353 353 352 352 353 353 352 353 355 353 352 352 354 354 354 355 355 356 355 356 355 356 357 357 357 358 359 359 359 359 358 357 357 357 357 356 357 356 354 354 353 349 346 344 344 346 347 346 345 341 340 340 342 344 341 341 341 339 339 338 341 339 343 342 342 346 346 346 344 344 346 348 349 350 352 355
350 351 350 350 347 348 349 350 351 352 353 352 352 352 352 352 353 353 354 352 352 352 353 353 356 355 355 355 356 356 357 358 358 357 357 356 357 357 357 357 357 358 357 357 356 355 354 352 350 349 348 347 346 345 344 344 347 345 344 341 343 344 343 341 346 344 344 342 340 340 340 342 342 343 347 347 345 344 343 348 348 348 349 351 354
349 349 350 348 347 347 348 348 349 349 351 351 351 352 352 350 353 354 354 352 351 352 352 352 354 355 355 355 355 357 356 357 356 357 357 356 356 356 356 356 355 354 355 355 356 355 354 353 352 350 349 349 348 348 346 344 344 344 345 345 348 345 344 346 345 344 343 341 339 341 340 340 345 345 346 342 341 340 345 346 347 348 350 350 352
348 348 348 347 347 347 347 347 347 347 350 348 347 348 350 349 350 352 352 352 352 351 352 352 355 355 355 356 356 358 359 358 358 357 358 357 357 357 356 356 356 353 353 352 351 351 350 349 348 348 351 362 366 364 359 357 347 344 345 347 346 344 344 345 344 342 340 340 343 342 341 343 343 342 341 339 341 342 345 347 347 350 351 350 351
346 347 346 346 347 348 348 348 347 346 347 347 346 344 346 348 348 349 350 351 350 351 350 351 353 354 355 355 353 354 357 360 363 367 367 361 357 358 356 355 354 353 353 352 351 351 350 346 347 362 365 368 373 374 373 370 365 353 344 345 346 345 342 340 340 342 342 342 341 340 341 341 342 342 341 343 345 347 350 349 347 348 348 348 348
346 346 346 346 347 347 348 348 348 348 350 347 345 344 347 348 347 347 348 348 348 349 350 350 350 351 353 354 353 352 349 345 343 334 340 347 362 356 354 353 352 353 352 349 348 350 348 348 349 357 362 362 357 364 369 367 369 367 364 363 357 345 342 343 342 342 341 340 340 341 341 341 342 343 343 345 350 349 348 348 347 347 345 344 343
349 347 346 347 347 347 347 347 347 348 351 351 352 353 354 353 351 350 350 351 352 351 347 348 348 348 349 348 345 343 339 335 328 332 336 340 351 355 354 352 352 350 350 349 347 346 348 351 353 361 361 362 356 350 354 364 363 365 365 363 361 362 358 346 342 341 340 340 339 340 339 340 342 343 344 350 350 348 347 347 345 345 346 345 343
348 348 349 349 349 349 347 346 346 350 351 353 354 353 351 350 349 350 350 352 353 349 347 347 346 346 345 343 342 340 334 329 327 330 331 332 335 356 352 352 350 349 347 345 343 346 350 352 353 351 350 360 354 349 347 352 361 361 362 363 362 357 345 344 347 347 344 341 340 341 342 342 342 344 348 350 347 344 345 345 346 346 347 346 346
344 346 347 347 346 346 348 349 347 348 348 349 349 348 348 347 346 346 348 350 352 352 350 347 345 343 343 342 337 334 330 327 325 327 328 330 333 344 350 350 349 347 347 348 353 352 351 351 349 346 344 344 344 346 345 348 352 354 353 353 354 357 358 352 344 342 347 347 344 342 345 346 346 346 352 351 347 345 344 345 346 346 346 346 349
340 343 343 344 344 343 340 338 338 339 342 345 345 344 345 343 344 344 345 348 350 350 349 347 345 344 339 335 333 330 327 322 322 324 324 327 331 348 348 353 351 350 351 354 354 355 353 352 346 342 339 340 345 347 343 346 348 352 350 352 352 351 351 354 355 353 351 348 345 347 349 350 350 351 352 349 349 348 348 347 347 347 348 350 349
342 343 343 344 345 345 343 341 340 339 338 339 342 344 343 342 342 344 344 344 346 349 349 349 345 339 335 333 330 327 325 319 320 320 321 325 343 351 349 348 350 353 355 354 354 354 353 348 343 339 337 336 338 329 336 345 348 347 347 349 350 352 353 354 341 349 353 349 349 351 352 352 346 349 350 349 348 347 350 351 350 347 345 341 342
342 343 343 345 348 348 346 344 343 342 342 342 342 345 344 343 342 344 342 344 347 348 348 348 345 339 336 333 329 327 327 321 317 316 317 321 340 345 347 351 351 352 353 354 352 351 349 346 343 340 338 336 330 322 325 345 345 345 345 346 348 349 350 352 344 342 338 334 332 333 332 331 331 329 328 326 337 342 345 343 342 343 342 341 343
342 343 342 345 346 346 345 344 343 342 342 341 344 346 349 348 346 346 342 344 346 346 346 346 345 342 336 332 330 328 326 322 315 314 315 319 337 339 344 348 349 351 352 353 353 353 355 356 349 340 337 336 324 321 324 341 341 341 343 342 342 343 343 342 343 345 341 340 340 338 336 336 338 340 340 335 333 338 346 343 345 344 343 343 341
339 340 341 344 345 345 344 344 343 342 341 341 343 344 345 344 344 344 344 344 345 345 346 342 341 339 338 337 339 331 329 326 315 315 315 319 333 337 341 343 347 346 350 350 347 343 344 350 350 343 338 330 319 319 324 337 338 338 339 340 340 339 337 336 338 342 343 344 345 348 349 352 354 353 351 350 349 352 351 348 347 344 342 343 343
337 339 340 341 343 345 345 345 343 342 341 341 342 342 343 342 341 341 342 344 345 344 344 342 339 339 339 337 335 332 330 329 325 315 317 320 330 339 338 341 342 346 349 349 342 340 339 340 338 324 321 319 315 313 317 322 333 334 339 339 336 334 335 333 339 340 339 340 343 345 341 343 344 342 338 338 341 344 340 340 340 340 339 340 342
336 336 337 338 339 341 342 342 342 342 342 341 342 344 344 342 343 343 343 344 343 342 340 339 337 336 336 336 336 334 332 329 324 314 314 316 322 334 336 336 337 339 345 346 343 341 339 339 338 325 317 316 314 311 311 317 327 333 335 338 337 333 329 331 336 342 337 341 341 335 333 334 334 333 333 333 335 337 338 337 339 339 338 336 336
330 331 333 334 336 337 338 339 341 341 342 342 341 341 343 344 344 344 344 342 340 338 338 334 332 332 334 336 336 337 337 334 330 319 315 314 315 323 333 336 334 340 342 342 340 338 338 339 337 328 315 315 311 307 307 313 317 333 334 322 316 319 328 334 333 336 339 334 328 327 327 327 327 328 330 329 331 335 334 334 333 333 334 333 332
327 327 327 328 332 332 333 336 337 339 339 339 337 337 338 339 341 344 342 340 338 337 334 331 329 330 333 334 336 336 334 332 329 325 318 314 313 315 319 327 324 333 331 331 330 330 332 334 334 331 314 308 304 306 307 309 326 328 318 312 312 315 330 331 335 336 329 326 324 322 323 323 324 324 326 326 328 330 330 329 328 328 330 331 334
329 329 330 325 325 328 332 333 332 333 335 335 335 333 333 335 337 338 340 340 338 337 335 334 333 333 332 333 332 331 331 332 330 327 323 316 313 312 313 314 318 323 324 321 322 323 324 325 329 316 308 304 305 307 310 317 323 313 310 312 317 332 332 330 329 327 326 322 321 320 321 322 322 322 324 326 328 327 327 327 325 326 326 327 328
329 330 328 326 326 324 326 328 330 329 330 332 333 334 333 333 331 332 332 331 331 331 334 336 333 333 332 329 328 327 325 325 327 330 328 324 316 315 317 317 315 315 322 323 324 323 320 313 311 311 314 313 313 313 316 324 321 319 319 322 339 330 331 326 323 321 320 320 320 321 321 323 322 323 323 324 327 324 324 325 325 325 326 327 327
328 328 330 331 334 333 334 334 331 329 334 331 334 335 334 332 330 329 329 329 330 330 331 332 334 334 330 329 326 321 319 318 317 318 324 325 324 319 317 321 327 325 323 320 319 318 317 318 318 318 323 326 328 330 331 333 328 327 328 329 324 323 321 320 320 320 319 320 322 321 319 320 320 322 325 326 322 321 321 323 322 323 324 324 323
326 325 323 324 326 328 330 332 328 327 328 329 327 328 328 327 327 329 327 326 327 329 330 331 331 334 330 324 320 319 316 316 315 314 315 316 316 317 317 317 321 320 318 315 316 318 326 330 324 321 324 324 325 326 330 329 325 324 324 326 326 324 324 321 319 320 321 319 320 318 318 318 322 323 321 320 320 321 322 325 321 321 324 322 319
321 320 323 327 328 327 329 334 327 322 321 319 318 318 320 321 320 321 321 321 322 323 326 327 327 327 322 319 316 315 314 313 312 312 312 314 314 313 314 314 312 312 311 309 310 319 322 328 324 328 326 322 320 320 321 322 323 322 319 319 319 324 327 328 326 319 318 318 317 318 318 318 318 319 319 318 318 320 322 322 322 320 322 320 316
325 320 320 321 326 328 324 323 322 319 316 315 312 311 312 315 317 316 318 319 321 322 320 321 322 321 320 317 316 315 315 313 316 309 311 305 310 313 312 310 309 310 312 307 316 318 319 321 324 323 321 320 319 318 318 319 320 320 319 317 317 317 318 316 315 314 314 314 315 316 316 316 316 318 317 317 318 319 319 318 319 319 319 317 316
320 320 321 322 324 324 323 320 321 320 316 315 314 313 310 301 303 314 314 316 308 308 314 319 319 318 316 315 316 315 313 315 309 299 299 296 296 297 299 296 298 305 305 306 317 311 315 317 320 319 319 317 317 317 317 317 317 317 317 320 318 316 316 316 314 313 314 315 314 314 313 315 314 314 314 316 317 317 316 317 316 318 315 314 312
322 321 323 323 326 326 322 318 317 317 317 316 316 315 313 312 299 298 305 307 302 299 302 306 310 314 320 315 312 306 308 303 297 297 295 294 294 293 294 295 295 295 298 309 311 313 314 316 318 319 319 317 317 317 317 317 317 316 315 315 315 317 317 315 312 314 314 313 313 313 313 313 313 314 313 315 318 313 314 315 315 314 313 312 310
320 319 318 322 329 326 320 321 321 319 317 317 316 315 314 312 312 301 296 300 300 296 297 299 301 304 308 313 316 310 303 299 296 295 294 294 293 292 293 294 294 295 296 302 314 311 313 313 316 318 317 317 319 318 315 314 314 313 314 314 313 315 314 315 313 312 312 312 311 313 313 313 314 314 314 314 313 311 310 310 310 310 311 310 311
318 317 321 323 327 330 327 325 323 322 320 320 319 317 313 313 312 312 310 298 295 295 295 296 296 296 297 298 300 304 303 298 294 293 293 293 292 292 293 295 295 294 297 309 311 311 314 316 317 317 316 315 314 314 314 313 312 313 312 313 312 311 313 313 312 314 314 313 312 312 312 311 312 311 311 310 309 307 308 307 307 308 307 307 308
319 319 320 322 322 323 323 323 323 322 323 322 322 319 319 318 315 314 314 314 314 306 299 295 295 297 296 294 296 296 295 294 293 293 293 293 293 293 292 299 296 297 306 312 312 313 314 316 317 316 315 316 315 316 314 314 315 313 313 312 311 311 312 312 312 312 312 311 309 308 308 307 309 307 306 305 306 306 305 305 305 304 304 304 305
320 329 330 327 320 321 321 321 320 319 320 320 322 326 326 322 321 318 315 315 314 312 312 312 302 295 303 302 293 292 292 292 293 293 293 292 293 293 301 310 311 312 313 316 316 314 316 315 313 314 314 315 315 315 313 312 312 313 313 312 310 311 312 312 311 309 307 306 305 305 306 305 305 306 305 303 302 302 303 303 303 304 303 303 304
318 317 321 325 321 320 320 319 319 318 319 320 323 325 327 327 326 322 318 319 318 314 313 310 310 308 302 294 292 292 291 292 292 292 292 293 293 297 311 309 310 312 313 312 312 313 314 313 312 312 311 311 311 311 310 311 311 310 308 309 310 309 309 308 308 306 305 304 305 304 303 303 304 303 302 302 302 302 302 302 301 302 303 301 303
316 316 315 318 319 319 318 318 318 320 324 322 320 321 323 324 326 324 323 322 321 317 312 312 311 313 313 315 301 293 293 293 294 294 294 295 293 306 311 310 310 312 313 312 312 311 310 310 310 309 310 309 309 308 309 308 308 309 310 308 308 308 308 307 306 306 303 303 302 302 301 301 301 302 301 300 300 300 300 301 299 300 301 302 302
314 314 316 318 317 317 315 316 320 324 321 320 321 320 323 320 320 323 322 322 324 320 315 314 316 311 310 311 319 314 305 297 296 299 302 301 305 311 313 315 313 311 311 311 310 309 309 309 308 308 308 308 307 307 307 306 307 306 306 306 308 308 309 307 306 303 303 301 301 300 301 300 300 300 301 299 298 297 298 299 298 297 298 300 300
315 320 321 322 320 315 315 318 318 317 318 317 318 320 321 321 320 319 317 319 320 319 319 317 317 314 314 314 313 318 315 313 313 312 313 312 311 309 310 311 311 310 310 309 311 309 307 307 309 308 307 306 307 306 305 305 305 305 305 305 304 303 303 301 301 301 301 300 299 299 299 298 298 298 300 299 298 297 296 297 297 297 297 297 298
314 314 318 321 318 318 320 322 319 317 319 316 313 317 321 319 317 317 315 315 315 315 314 317 318 316 317 316 315 314 314 315 315 315 313 310 310 309 309 309 308 308 307 307 306 306 306 306 305 305 305 305 305 305 305 305 304 305 305 304 302 301 300 300 300 300 299 299 299 298 298 298 298 298 298 298 298 297 296 296 297 297 297 297 297
312 313 320 318 318 316 319 317 314 313 315 318 316 315 316 317 315 317 314 314 315 314 314 311 307 306 309 309 307 309 313 312 311 313 313 312 310 308 307 307 307 307 307 307 306 305 303 303 303 303 303 303 303 303 303 303 304 303 303 304 302 301 300 300 300 300 299 299 298 298 298 298 298 296 296 298 299 297 297 297 296 296 297 297 297
313 312 315 314 313 315 315 316 314 315 316 317 314 313 317 316 313 314 316 315 314 312 309 307 305 306 302 301 299 300 308 311 311 309 308 308 307 307 307 305 304 304 303 303 303 304 303 302 303 302 302 302 302 302 302 301 301 301 301 300 300 300 299 298 299 299 298 298 298 298 297 299 299 298 298 298 296 295 295 295 294 295 295 295 296
317 315 314 315 313 313 314 314 314 312 312 312 312 318 316 312 311 312 313 316 313 311 308 306 306 307 305 303 303 304 306 307 311 306 305 305 304 305 302 302 301 301 301 302 302 301 301 301 300 301 301 301 300 301 299 299 300 299 299 298 298 298 297 298 297 297 296 296 296 297 297 298 297 295 295 296 295 295 294 294 294 294 294 294 295
317 318 316 316 314 314 315 313 313 313 312 315 316 315 314 311 311 312 310 309 312 312 308 307 306 305 304 301 302 303 303 303 303 303 305 305 303 303 301 300 300 300 300 300 300 300 300 300 299 299 299 299 299 300 300 299 299 299 298 298 299 299 297 297 296 296 296 296 297 297 296 296 296 294 295 296 294 294 294 294 294 294 294 294 295
315 316 316 313 313 311 311 314 313 313 315 316 312 312 314 309 310 310 310 309 310 309 308 309 309 307 306 304 304 303 303 303 306 305 303 303 303 301 300 300 300 299 300 300 300 299 299 299 299 299 299 298 298 298 298 298 297 297 297 297 297 297 297 296 296 297 297 297 296 295 295 295 293 293 293 293 295 294 294 293 293 295 295 295 296
314 315 315 314 314 314 313 311 314 311 312 310 309 308 308 308 308 310 310 310 309 308 308 308 307 306 305 304 304 304 301 301 302 303 303 302 301 300 300 299 299 299 299 299 300 300 299 299 298 298 298 298 298 298 298 297 296 296 296 296 295 296 296 296 296 297 297 297 295 294 294 294 293 293 295 293 293 294 292 293 294 295 295 295 296
313 313 313 313 312 311 312 311 310 309 308 308 309 308 307 307 306 310 313 310 308 309 304 303 302 302 302 302 302 302 303 301 301 301 301 301 300 300 299 299 299 298 298 298 299 298 299 299 299 299 299 298 298 298 297 296 295 296 297 295 296 295 295 295 296 296 296 296 295 294 293 292 293 293 294 294 294 293 294 294 295 295 295 295 296
311 312 311 311 309 308 309 309 309 313 309 309 309 310 310 310 309 309 309 309 306 305 303 302 301 301 303 301 302 302 301 300 301 302 300 300 298 299 299 299 299 298 298 297 298 299 299 298 297 298 298 300 301 299 297 295 295 294 294 294 295 294 295 294 294 294 294 295 294 294 292 290 291 291 293 293 292 293 293 294 294 294 295 296 296
308 309 309 309 309 309 309 310 310 307 307 307 308 308 308 306 306 305 307 306 305 304 303 302 301 301 301 301 302 301 301 301 298 297 297 298 298 298 298 299 300 297 297 296 296 297 297 298 299 298 298 299 300 300 298 296 294 293 293 293 295 295 291 293 293 292 292 294 293 291 290 289 290 291 293 293 293 293 294 294 294 295 295 296 296
308 310 308 310 310 309 310 309 308 307 307 306 306 306 307 307 306 307 306 306 305 303 301 301 301 301 302 301 302 300 299 299 298 296 297 297 297 297 297 296 296 296 296 296 296 296 296 296 296 298 299 299 299 298 297 295 294 294 293 293 293 289 290 291 292 292 292 291 290 289 289 290 290 290 290 291 292 293 293 294 294 295 296 296 296
308 308 308 308 307 307 306 305 306 305 305 304 305 304 305 304 305 305 305 303 302 301 301 299 300 300 299 299 301 299 298 297 296 295 295 295 295 296 297 296 296 295 294 295 294 294 295 296 297 299 299 301 299 297 296 295 294 294 293 293 289 287 287 289 291 288 290 290 289 289 290 291 291 290 291 292 292 293 294 295 295 295 296 295 294
Wind_Speed
8 8 7 7 7 8 8 6 7 6 7 7 7 7 6 6 7 6 4 6 6 5 5 5 6 6 6 5 5 5 5 4 4 3 3 4 3 3 3 3 3 4 3 4 3 2 3 3 3 3 2 2 3 3 2 2 3 3 2 1 1 2 3 2 2 4 4 2 3 4 4 3 4 3 6 7 8 8 8 6 6 6 7 6 6
9 8 7 7 8 8 8 7 7 6 7 7 7 7 7 6 6 5 6 6 6 6 6 6 6 6 5 5 5 5 5 5 5 4 4 4 4 3 4 3 3 4 3 3 4 3 3 3 3 4 4 3 3 4 3 3 3 3 3 2 3 3 3 2 3 2 4 4 4 4 4 1 3 4 4 7 8 7 9 9 7 5 6 5 6
9 8 7 6 8 8 7 7 6 6 7 6 7 7 6 6 5 6 7 6 5 6 7 7 7 6 5 5 5 5 5 5 5 5 5 5 5 4 4 4 4 3 3 4 4 3 3 3 4 4 3 3 4 4 4 4 2 2 3 3 4 4 3 3 2 2 4 4 2 3 2 2 2 5 6 5 5 4 6 7 7 7 5 4 5
9 8 8 7 7 8 8 7 8 6 7 7 8 7 7 6 5 7 7 6 7 6 7 7 7 7 6 6 6 5 5 5 5 5 6 6 6 5 4 3 3 4 4 4 4 4 5 4 5 5 3 4 5 5 4 4 3 2 3 3 3 4 3 3 4 4 2 2 3 2 3 3 4 4 5 5 5 6 4 5 4 4 5 6 6
9 9 10 9 7 7 9 8 8 8 7 6 8 7 7 7 5 7 7 6 7 6 6 5 6 7 8 7 6 6 6 6 6 6 6 5 6 6 5 4 4 4 5 5 5 5 5 5 6 5 5 5 4 4 5 4 3 3 3 2 3 3 2 2 1 1 1 3 3 3 2 2 3 5 3 4 7 5 4 4 4 4 5 5 5
9 9 10 10 9 9 9 9 9 9 9 7 8 8 7 7 7 6 7 7 6 6 7 6 6 7 7 7 7 7 7 7 7 7 6 6 6 6 5 5 5 5 5 5 6 5 5 5 5 5 4 4 5 4 3 4 4 3 4 4 4 3 3 2 1 3 2 2 2 4 3 3 4 3 4 3 5 5 5 5 4 4 4 6 5
10 10 10 10 8 9 9 10 9 9 9 9 8 8 8 8 8 8 8 7 7 7 6 6 6 7 7 7 6 7 7 7 7 6 6 5 5 5 6 5 4 3 4 5 6 5 5 5 6 5 5 6 6 6 5 4 4 5 5 5 3 2 2 2 1 0 0 2 3 3 3 3 1 4 5 4 2 2 3 6 6 3 2 4 6
11 11 10 9 9 9 9 9 8 8 8 8 8 8 8 7 8 9 8 8 8 7 8 7 6 6 7 7 7 6 6 6 6 6 5 5 5 5 6 5 3 3 5 6 5 6 6 5 6 5 5 6 6 7 5 6 4 5 6 3 2 3 3 1 0 0 1 2 2 4 2 3 6 3 3 4 4 3 1 1 6 8 7 2 2
11 11 10 10 9 8 8 6 6 7 8 7 7 8 7 7 8 8 8 8 8 8 7 7 6 6 6 6 6 6 6 5 5 5 6 6 5 6 5 5 5 5 5 5 5 5 4 5 5 5 6 10 12 11 8 7 6 7 5 3 4 3 3 1 1 1 2 2 5 3 3 5 5 5 6 4 5 5 4 2 3 5 6 7 4
10 11 11 10 9 8 8 7 7 6 6 8 7 7 8 7 7 7 8 8 8 8 7 7 7 7 7 6 5 5 4 4 3 7 6 5 6 5 4 5 4 4 4 5 5 4 5 4 3 7 6 4 4 2 5 9 11 8 4 4 4 4 3 3 3 2 2 4 5 4 5 6 6 4 3 3 4 3 4 4 6 6 6 6 3
9 10 11 10 9 8 7 7 7 6 5 7 7 5 5 7 8 6 5 5 4 5 7 8 7 7 7 7 6 2 2 2 5 3 1 3 3 4 5 5 4 4 4 4 4 2 2 2 2 5 7 7 6 9 7 8 6 1 2 5 6 4 3 3 4 3 2 3 3 3 3 5 6 4 4 5 3 2 3 4 5 5 5 7 10
10 9 8 6 6 8 7 7 6 4 3 3 3 3 3 2 3 4 5 5 3 3 3 5 5 6 4 4 4 4 3 2 3 3 3 1 2 2 3 3 4 4 4 3 3 3 1 3 3 4 5 5 4 5 6 8 8 7 5 3 4 5 4 3 3 2 2 3 3 3 3 5 5 4 5 3 4 4 3 4 3 4 5 5 5
3 3 3 2 2 5 6 6 5 4 4 5 5 4 4 4 4 4 5 3 4 5 5 4 4 4 6 6 5 4 3 1 1 2 2 2 0 3 3 3 4 4 4 4 4 3 3 4 4 4 3 7 5 4 4 4 6 8 7 3 1 4 5 5 3 2 1 2 2 3 3 3 3 3 2 3 2 2 3 4 4 4 4 5 5
5 4 5 5 6 6 6 3 0 2 4 5 4 4 4 4 3 3 5 3 4 5 4 4 3 4 6 7 5 4 2 3 4 2 1 1 1 2 3 3 3 3 4 4 4 4 4 5 4 3 2 3 3 4 3 3 4 4 4 4 4 5 5 2 2 1 0 1 1 2 3 2 4 3 4 1 1 3 4 5 4 5 5 5 5
5 4 5 4 5 5 6 9 9 11 12 9 5 1 1 1 1 1 2 5 5 5 5 5 3 4 4 5 5 4 2 4 3 3 4 3 2 2 2 2 3 3 4 4 4 5 4 5 5 4 2 2 3 4 3 3 3 3 3 3 3 3 3 4 5 4 3 1 1 3 5 4 5 5 5 3 2 4 4 5 5 4 6 5 5
5 5 6 4 4 6 6 6 7 7 4 6 6 6 6 3 0 1 2 2 2 3 2 3 4 5 5 6 6 5 2 4 4 5 5 5 2 1 2 3 3 4 4 3 4 4 5 6 5 4 2 2 4 7 5 3 1 2 2 2 2 2 3 3 3 4 2 0 1 3 4 5 6 6 5 4 4 3 4 4 4 3 4 4 5
6 5 3 4 6 6 7 7 6 6 4 3 2 2 1 3 1 1 2 2 3 4 4 3 4 5 5 4 6 5 2 2 4 5 5 7 3 3 2 3 4 4 4 4 4 5 5 5 5 4 3 1 3 5 7 6 0 1 0 0 1 1 3 3 5 6 7 7 7 7 8 9 9 9 7 6 4 2 2 4 4 4 4 6 5
5 5 4 5 6 7 7 6 6 5 3 2 1 2 3 3 2 2 3 3 1 2 3 4 4 3 4 4 3 5 2 2 4 5 5 5 3 2 1 2 3 4 4 3 4 4 5 10 6 4 3 2 3 3 6 3 1 2 1 1 1 1 3 4 4 5 6 7 6 7 8 8 7 7 5 3 2 1 2 5 4 3 5 4 6
5 5 5 5 6 6 7 7 8 7 6 3 3 3 2 2 1 2 5 4 3 3 4 5 6 4 4 5 7 6 3 2 3 4 5 3 2 2 2 2 3 3 5 5 4 4 4 5 7 4 4 3 3 3 5 4 2 2 1 0 1 2 2 2 3 4 5 6 6 7 7 8 6 6 7 11 8 3 3 4 5 4 5 5 5
4 3 5 5 5 6 6 6 7 8 8 6 5 4 1 1 3 1 1 3 5 4 5 5 7 5 4 4 3 4 5 3 4 6 5 6 4 3 3 4 3 4 5 6 5 4 4 4 4 5 3 3 4 4 3 4 3 2 1 2 2 1 2 2 2 2 2 2 3 4 6 6 7 7 7 7 8 7 7 6 6 5 4 4 5
6 6 6 6 5 5 4 5 6 5 5 4 3 2 0 1 2 2 1 2 4 5 5 6 6 5 5 4 3 3 4 5 6 8 9 9 8 4 2 2 1 0 2 3 2 2 3 3 3 4 3 3 3 2 2 1 1 1 1 1 0 2 3 2 2 5 2 3 4 5 6 6 6 6 7 7 7 7 7 6 6 5 5 5 5
6 7 8 8 6 6 6 6 6 5 4 4 4 2 2 3 4 4 2 2 4 5 6 5 6 5 4 6 4 4 6 8 4 7 9 10 9 6 2 1 0 1 3 3 5 3 4 3 2 2 1 0 3 3 1 2 2 1 1 2 2 2 2 2 2 1 4 5 5 6 6 6 6 6 6 7 7 6 6 6 6 5 5 3 3
7 8 8 8 5 4 5 6 6 6 5 4 5 5 2 2 2 3 4 5 5 6 5 5 7 6 3 3 4 5 4 6 7 6 8 12 12 13 12 9 11 7 6 7 6 4 4 5 4 4 3 3 4 6 5 3 2 1 0 3 4 5 4 1 1 4 5 5 6 6 6 6 6 5 6 6 6 5 5 5 5 5 5 4 4
4 7 8 8 7 4 4 6 7 5 5 5 6 6 4 4 4 3 4 4 3 4 5 4 4 4 5 3 4 5 5 5 8 8 8 12 11 13 13 13 12 8 7 6 4 5 5 5 5 10 9 6 6 6 7 4 3 4 2 2 3 3 2 3 5 5 5 6 6 6 6 5 4 6 5 5 5 4 5 4 6 5 5 6 6
3 4 4 4 4 4 4 5 6 6 4 5 6 6 6 7 7 5 6 6 5 4 2 2 3 4 4 5 5 5 5 5 4 6 11 11 11 11 11 11 9 8 6 3 1 2 5 11 11 8 5 6 6 7 6 6 5 7 6 4 5 4 6 6 5 6 7 6 6 5 6 5 4 3 3 3 3 4 4 5 6 5 5 4 3
5 5 4 3 2 2 1 2 2 2 2 3 5 5 5 5 6 5 6 6 6 5 4 3 4 3 3 4 5 5 4 4 5 5 6 7 7 9 10 10 10 8 6 3 2 3 5 7 9 9 7 4 2 1 2 4 10 14 16 13 8 7 6 6 6 7 6 6 6 6 5 5 5 5 4 5 6 7 6 6 6 7 7 7 7
3 3 3 2 2 1 2 2 3 4 3 5 5 4 4 6 4 4 4 5 5 5 4 4 4 5 4 5 5 4 6 5 4 4 4 4 5 5 5 6 8 7 6 6 7 7 7 6 6 6 5 9 11 11 11 11 10 9 8 7 7 6 7 6 6 6 6 6 5 5 5 5 4 6 7 6 6 6 6 5 6 6 6 6 5
1 1 2 3 3 4 5 8 8 6 6 5 5 5 5 4 5 5 4 4 5 5 5 4 6 6 6 5 5 5 5 4 3 3 4 4 4 4 4 5 6 5 6 6 5 5 4 5 7 6 6 7 8 8 7 7 8 8 7 7 7 7 8 11 9 6 5 4 4 3 4 4 5 5 6 6 6 6 6 6 6 6 6 5 6
2 2 2 2 3 3 5 6 6 6 5 6 6 5 4 4 4 4 2 2 2 6 6 5 4 4 5 5 6 6 4 4 1 1 1 2 3 4 5 5 4 5 5 6 5 5 6 7 7 6 6 5 6 7 7 7 7 7 7 6 6 6 6 6 7 6 3 4 5 4 4 4 5 5 5 6 6 5 6 6 6 6 6 6 7
4 3 2 2 2 3 4 4 4 6 7 6 6 6 9 9 7 5 4 9 10 7 3 4 6 6 6 3 2 4 5 4 5 4 1 3 6 8 6 4 5 4 7 9 3 3 5 5 5 5 4 5 6 6 6 6 6 6 5 5 5 5 5 4 4 3 3 3 2 4 4 3 5 5 5 5 5 6 6 6 6 6 7 7 6
3 3 3 3 3 3 4 5 4 4 4 5 6 7 4 7 10 11 9 8 8 9 9 9 7 6 8 4 4 9 8 8 6 3 4 5 5 4 4 3 3 5 7 5 4 5 4 5 5 5 3 5 6 6 6 6 5 5 5 5 4 4 3 4 3 2 3 4 4 4 4 5 6 5 5 4 4 6 7 7 7 7 7 6 6
3 2 2 3 4 3 2 3 3 4 3 2 4 5 6 6 5 7 8 8 8 8 9 9 9 8 9 9 7 3 3 3 3 3 2 3 2 3 3 2 3 4 6 2 2 4 3 4 4 3 3 6 5 5 5 6 5 5 4 5 4 2 3 3 1 2 3 4 5 5 7 6 6 6 7 6 5 7 6 7 7 7 6 6 6
4 3 1 1 2 5 4 3 2 3 3 3 3 3 5 5 6 4 2 4 7 8 9 9 10 9 9 6 5 3 6 6 4 4 5 5 4 3 3 1 3 5 2 2 3 4 3 3 5 4 4 5 5 5 5 4 5 4 4 4 3 1 1 0 1 5 6 7 7 7 7 7 6 6 6 6 6 6 6 6 6 6 6 6 6
4 4 3 3 4 4 4 5 4 3 2 3 3 3 2 3 5 5 5 3 3 5 7 9 8 7 7 8 9 9 8 7 5 3 3 3 5 6 6 3 3 1 1 2 3 3 1 4 4 3 3 3 4 4 4 3 3 4 3 3 3 3 3 4 7 7 7 8 8 7 7 6 6 7 6 6 5 6 6 6 6 6 6 5 6
1 5 8 5 4 5 5 5 5 5 4 3 2 3 4 3 2 4 5 5 5 4 3 2 4 6 3 5 7 8 7 5 4 3 3 5 6 8 4 5 6 7 7 7 5 5 6 6 5 5 5 5 4 4 5 5 6 5 5 5 6 7 7 8 7 7 7 7 7 7 6 6 6 5 5 6 6 7 6 6 6 6 6 6 6
1 2 3 4 4 4 4 4 4 4 4 3 2 2 2 3 4 3 2 1 2 4 2 2 1 3 4 6 7 6 5 3 3 2 2 4 7 6 7 6 6 6 6 6 7 6 6 6 6 5 5 6 5 6 5 5 5 5 5 6 7 7 7 7 7 7 6 7 6 6 6 6 6 5 4 6 6 6 5 6 6 5 6 5 6
1 1 2 3 4 4 3 3 3 3 3 2 3 3 3 2 2 2 2 3 3 2 3 2 2 1 2 2 6 3 2 1 1 1 1 2 4 3 5 5 6 6 6 5 6 6 7 6 5 5 5 5 5 5 5 5 5 5 6 6 6 7 7 7 6 6 6 6 6 6 6 6 6 6 6 6 6 6 6 6 6 6 6 8 8
2 2 3 3 3 3 3 3 2 3 1 1 1 1 2 2 1 1 2 2 3 4 4 3 4 4 3 2 5 2 1 2 3 3 2 2 2 4 6 6 6 6 5 5 5 5 6 5 5 6 5 5 5 5 5 5 5 5 5 6 7 7 10 8 8 7 6 6 6 5 6 6 5 5 5 6 6 5 6 6 6 6 6 7 6
2 3 6 6 4 4 3 2 1 1 0 0 0 0 0 1 1 2 2 1 2 3 4 5 5 4 5 2 3 2 3 2 3 1 2 2 2 3 5 5 5 5 4 4 5 5 5 5 5 5 5 5 5 5 5 5 5 5 5 6 6 6 6 6 6 5 6 5 5 5 5 5 5 5 5 5 5 5 5 5 5 6 6 6 6
3 3 4 7 4 3 2 2 1 0 0 1 1 0 0 0 1 2 2 3 3 2 3 4 4 2 2 2 2 3 2 0 1 1 1 2 3 5 5 5 5 5 5 5 5 5 5 5 5 5 5 5 5 5 5 5 5 5 5 6 6 6 6 5 5 5 5 5 5 4 4 4 4 4 3 4 4 4 4 5 5 5 5 5 6
4 3 3 4 4 3 2 2 2 2 2 2 1 1 1 1 2 2 3 4 3 3 3 2 3 2 2 4 5 5 4 4 2 2 2 4 5 5 5 5 5 5 5 5 5 5 5 5 5 5 5 5 5 5 5 5 5 4 5 5 5 5 5 5 5 5 5 5 4 4 3 3 3 4 4 3 4 4 3 3 4 5 5 5 6
4 3 2 2 1 3 3 3 3 3 3 2 2 3 3 2 2 2 2 3 4 4 4 3 3 2 3 6 7 7 5 2 4 5 5 6 6 5 5 6 5 5 5 5 5 5 5 5 5 5 5 5 5 5 5 5 5 5 4 4 4 5 5 5 5 4 4 4 4 3 3 4 4 4 5 5 4 4 4 4 4 4 5 5 6
3 4 4 4 4 5 5 5 4 3 3 4 5 4 4 3 3 3 2 3 4 5 5 5 3 1 2 6 5 6 5 6 5 5 5 5 5 6 6 6 5 5 5 5 4 5 5 5 5 4 5 5 5 4 5 4 5 5 5 5 5 4 4 4 4 4 3 3 3 3 3 3 4 4 4 4 4 5 4 4 4 5 5 6 5
2 1 3 4 5 5 4 5 5 4 4 5 5 4 3 3 3 2 3 3 5 4 5 5 4 3 2 2 4 5 6 6 6 6 5 5 5 6 5 5 5 5 5 5 4 4 5 5 5 4 3 3 3 3 4 4 5 5 5 4 4 4 4 3 3 3 3 4 4 4 3 4 5 5 5 5 5 5 5 5 5 5 5 5 5
3 2 1 2 3 4 4 3 4 5 4 4 3 3 3 4 5 3 3 3 3 4 5 4 4 3 3 3 4 6 6 6 4 4 5 5 5 5 5 5 5 5 5 5 4 4 5 4 4 3 3 3 3 4 4 4 4 5 4 4 4 3 3 3 3 3 3 3 3 3 4 4 4 5 5 4 5 5 5 5 5 6 6 5 5
4 3 2 1 0 2 3 3 2 2 2 3 5 5 4 4 3 3 3 3 5 5 5 4 3 3 4 5 5 4 4 5 5 4 4 5 5 6 5 5 5 5 5 5 4 4 3 3 3 3 3 3 3 5 4 4 4 4 4 4 4 4 3 3 3 3 4 3 3 3 3 3 4 4 6 5 4 5 5 5 5 5 5 6 5
6 5 4 4 3 2 2 1 1 3 4 5 5 5 5 5 4 3 3 5 6 6 6 6 6 6 6 6 6 5 5 5 5 5 5 5 5 6 5 5 5 5 4 4 3 4 3 3 3 3 2 2 3 5 4 4 4 4 4 4 4 4 4 3 3 3 3 2 2 2 2 2 4 4 6 5 5 5 5 5 6 6 6 6 6
6 6 5 4 3 3 4 3 3 4 4 3 3 2 2 1 1 3 3 4 6 6 6 6 6 6 6 6 5 5 6 6 5 5 5 5 5 6 5 5 5 5 4 4 3 3 3 3 3 3 2 2 3 4 4 4 4 4 4 4 3 3 4 4 3 2 2 1 2 2 2 4 4 4 5 5 5 5 5 5 6 6 6 6 6
5 5 5 5 4 3 3 3 4 3 4 5 5 5 5 5 6 4 2 4 5 5 6 6 6 6 6 6 5 6 6 5 5 3 5 6 6 6 6 5 4 4 5 4 3 3 3 3 3 2 1 2 1 3 4 3 3 3 4 3 4 6 6 5 3 1 1 2 1 2 2 3 3 4 5 5 5 4 4 5 6 5 5 6 6
1 2 3 2 2 3 2 1 2 4 5 5 6 5 5 4 1 1 1 1 2 3 4 5 5 5 5 5 5 5 4 3 6 6 6 6 6 6 6 5 4 4 5 4 3 3 3 2 1 0 0 0 2 4 4 4 4 4 3 3 5 7 6 5 4 1 0 1 2 2 3 3 3 4 4 5 5 5 5 5 5 6 6 6 6
2 2 3 5 5 5 5 5 6 5 5 4 4 4 3 3 5 5 5 5 6 5 4 4 5 5 4 4 5 6 6 5 5 4 4 4 4 4 4 5 4 4 4 4 3 3 2 0 0 0 0 2 3 4 4 5 4 4 5 7 8 7 6 4 3 3 4 3 2 3 3 3 3 3 4 4 4 4 5 6 7 6 5 6 6
Wind_Direction
183 190 186 190 184 189 194 195 194 187 183 185 187 195 194 193 197 200 190 196 189 187 188 181 180 183 185 191 191 198 200 206 211 199 200 216 222 214 238 224 240 254 242 267 275 285 284 286 289 286 285 322 303 304 332 306 306 293 294 185 180 159 149 156 204 269 301 261 257 265 302 345 316 328 331 320 323 322 323 310 308 311 308 309 324
187 188 188 189 189 191 194 195 194 191 194 189 192 193 196 195 197 190 196 200 186 188 188 189 188 186 189 190 194 197 200 202 200 193 205 215 225 220 228 228 235 249 241 251 278 282 270 274 288 280 268 259 277 296 283 290 280 299 307 257 267 247 197 165 208 214 270 317 310 308 302 320 304 301 314 314 312 322 321 319 320 319 313 330 336
186 185 187 187 192 193 191 192 187 192 194 194 198 194 197 200 193 198 201 199 197 188 187 189 187 189 194 193 190 194 202 207 200 191 204 205 215 227 226 217 217 230 236 249 259 268 281 266 266 269 277 275 267 267 271 263 247 241 264 247 251 257 234 191 157 234 265 275 259 303 289 316 291 295 309 297 291 291 304 314 325 323 333 337 342
185 183 188 194 194 192 194 195 190 189 192 194 196 199 201 201 193 198 202 196 198 200 191 189 185 188 194 199 201 205 202 208 205 200 200 203 211 220 231 224 221 225 231 236 247 252 251 264 271 272 273 274 268 263 254 242 236 221 248 258 228 254 240 174 187 198 214 283 301 285 279 320 297 290 289 303 309 322 314 301 320 342 349 357 352
182 185 188 192 197 199 199 198 198 197 197 194 200 200 202 203 199 203 197 195 197 194 198 187 184 189 197 198 202 205 207 204 203 204 205 203 206 216 220 215 214 218 223 229 234 237 245 239 252 255 255 247 263 249 250 260 256 240 251 250 229 239 247 206 213 153 174 261 284 276 283 280 258 290 311 344 327 328 329 338 331 334 342 338 334
183 183 188 189 194 198 200 199 200 201 203 202 204 205 205 207 205 208 202 202 194 191 193 196 192 199 201 199 198 201 203 201 199 200 201 200 206 213 219 216 217 217 225 226 232 225 227 236 237 237 239 234 253 257 256 250 248 238 240 250 241 235 239 248 161 170 187 224 221 294 323 298 327 301 299 4 333 319 324 319 330 343 346 337 333
183 183 189 191 190 197 196 199 199 200 203 206 208 208 206 205 207 209 206 204 200 199 197 193 200 198 205 201 199 195 191 191 191 197 200 200 205 211 223 226 228 245 242 233 237 238 239 241 244 235 241 245 250 251 244 246 250 254 246 248 232 182 196 220 139 120 49 308 290 235 267 286 253 295 312 337 315 239 297 329 327 306 320 324 324
183 185 188 191 191 196 198 197 198 199 201 206 212 214 212 201 202 204 199 201 203 203 203 199 196 197 201 200 202 196 193 192 195 200 202 203 204 213 217 219 192 206 249 251 244 242 244 250 256 254 245 252 249 255 233 243 239 248 251 236 196 175 191 168 124 145 265 276 250 295 305 296 321 285 295 345 2 339 306 297 310 325 329 321 289
183 184 187 191 195 194 196 197 196 199 205 204 211 218 219 209 202 199 196 200 201 198 197 191 181 195 200 192 188 190 192 203 199 196 204 212 201 201 204 201 188 210 233 251 249 245 251 249 251 254 249 246 246 243 232 225 226 238 244 194 201 201 200 172 184 282 286 290 300 296 307 312 295 311 324 331 331 301 292 357 296 306 311 323 310
181 184 188 194 194 191 192 198 200 199 208 213 213 211 217 218 216 208 201 199 197 194 190 183 178 180 186 196 199 196 195 198 200 203 203 206 209 210 200 195 207 221 231 243 258 244 238 249 260 267 285 322 54 13 261 249 235 225 227 201 220 214 209 222 247 238 258 286 279 290 309 299 293 299 292 280 286 297 326 337 330 313 319 310 286
180 185 192 193 190 186 186 196 196 199 204 211 223 216 217 215 210 210 216 219 213 200 186 186 186 182 182 188 197 150 70 34 1 346 299 275 238 214 213 213 205 212 214 224 230 273 301 325 344 64 54 25 13 17 17 40 43 47 222 205 199 192 202 226 247 217 213 241 260 290 278 286 291 292 287 289 288 308 304 322 315 330 343 339 329
173 181 189 188 187 185 189 187 188 184 149 132 139 148 146 117 147 175 181 171 163 160 194 204 197 189 158 126 121 124 125 45 6 22 20 354 255 223 214 220 217 213 222 198 193 190 150 73 67 68 49 41 25 11 5 13 16 10 347 293 246 235 228 206 223 217 200 237 277 268 265 272 283 301 298 312 316 325 330 328 314 322 319 314 298
91 131 125 123 205 206 190 186 181 147 148 146 143 141 133 126 126 132 141 152 140 146 167 165 178 165 146 145 138 132 139 58 67 79 77 96 212 225 216 220 222 220 181 175 162 135 111 100 83 52 33 30 32 10 13 359 359 11 27 32 276 230 230 244 235 229 173 198 223 277 256 267 290 283 280 305 328 325 322 318 302 290 283 284 283
51 57 74 75 68 41 12 354 65 146 148 155 153 148 157 155 155 139 124 107 112 124 128 133 140 154 155 147 134 111 96 17 355 7 65 107 182 181 203 192 157 140 163 164 137 135 128 122 106 70 30 29 23 18 5 6 356 7 9 9 8 2 5 355 216 201 170 212 199 232 266 230 266 261 284 249 325 294 292 288 286 291 288 276 284
156 140 124 118 102 92 88 81 60 22 358 352 342 9 78 63 50 46 99 133 139 143 140 127 117 107 101 108 117 105 71 9 357 6 2 356 310 197 166 156 136 132 134 134 135 130 123 107 104 114 93 46 31 11 21 351 3 16 17 10 16 41 58 62 61 66 65 111 185 228 261 269 262 273 273 257 241 246 251 266 286 293 289 291 290
186 149 141 136 101 103 101 93 103 105 57 346 354 357 342 331 73 72 75 74 89 104 106 125 132 123 120 120 116 106 58 17 9 11 9 358 355 93 105 119 115 114 112 105 99 95 101 109 114 113 112 68 19 357 350 320 10 38 23 359 14 46 70 79 52 38 49 264 261 279 279 283 283 280 288 289 278 264 291 297 298 295 313 322 332
7 3 37 54 82 95 107 108 99 106 133 185 272 320 283 292 298 102 103 157 159 151 151 147 143 137 131 124 117 109 88 28 23 27 25 6 23 45 61 97 117 126 126 122 110 104 101 115 123 132 121 89 16 358 347 342 18 56 0 343 325 7 54 21 8 2 350 335 316 300 289 288 293 295 295 249 234 302 309 345 340 349 345 337 331
47 48 49 63 90 109 111 119 119 117 150 188 240 243 251 231 200 161 153 166 148 104 106 92 86 102 112 109 117 111 96 19 21 38 43 36 49 63 43 104 125 135 127 111 105 102 129 125 125 121 122 107 17 359 1 3 24 4 14 345 326 13 36 357 346 343 338 331 323 317 307 308 315 339 11 1 296 268 332 354 325 333 317 321 318
88 88 81 96 111 119 124 123 126 136 156 172 244 230 206 266 309 138 144 131 127 128 117 106 99 93 109 120 121 114 115 80 48 49 54 51 88 95 80 87 107 129 138 121 93 88 71 84 98 107 121 117 70 48 30 39 63 40 351 29 61 85 35 337 332 342 347 350 352 355 359 1 15 28 22 16 29 13 350 340 337 335 321 318 314
77 79 81 77 97 109 124 134 143 153 154 164 203 214 202 355 304 355 74 122 128 124 116 109 109 96 80 88 101 122 124 98 50 34 61 60 67 81 85 116 148 172 162 147 127 113 117 119 80 70 85 103 85 76 51 50 75 33 16 73 67 26 338 320 310 336 325 342 341 25 32 31 35 26 20 16 9 6 4 0 6 0 350 333 335
67 70 75 77 76 92 96 111 125 138 151 161 168 191 160 116 242 280 18 83 100 103 106 111 102 99 93 73 70 51 79 73 42 34 32 37 46 80 99 107 80 66 101 102 40 164 146 111 118 107 96 74 56 61 79 63 38 68 66 108 40 290 295 293 315 357 353 23 44 46 36 29 28 20 18 15 8 2 6 9 18 20 19 15 5
48 48 56 65 70 85 105 117 123 120 116 130 147 165 165 179 164 160 160 128 97 87 77 68 81 67 72 111 112 95 83 80 79 41 37 38 37 39 83 83 224 129 97 99 95 60 34 34 49 111 103 46 297 290 258 147 251 244 231 242 270 274 278 281 282 345 52 63 54 46 34 30 25 15 12 10 5 1 3 3 3 10 14 20 358
90 85 77 75 66 68 66 74 72 84 98 105 108 107 97 106 121 138 141 137 133 125 116 122 118 122 111 76 66 74 77 82 70 63 52 58 55 55 51 48 47 50 68 61 45 38 15 353 326 351 346 315 304 298 309 305 250 196 304 303 283 274 281 331 15 69 67 61 58 51 38 31 26 12 9 4 351 351 353 353 352 358 356 356 347
91 93 94 95 92 78 89 97 100 94 105 109 103 94 79 72 71 71 88 105 117 117 125 129 115 115 113 82 83 75 74 81 75 69 64 63 60 60 60 60 67 68 64 79 66 41 2 327 300 292 291 300 297 302 301 300 272 287 317 309 316 348 19 44 62 66 66 53 49 43 35 22 22 14 6 346 340 337 331 348 351 352 359 350 354
65 74 82 90 91 98 90 94 97 100 98 101 95 91 83 79 76 68 80 78 68 71 88 125 119 129 127 119 95 69 47 53 60 73 68 63 55 56 64 70 66 76 79 68 76 134 228 252 256 264 281 283 285 276 276 282 342 1 358 6 35 61 70 73 65 61 52 44 43 42 29 13 12 3 351 346 336 353 360 359 352 354 351 349 358
51 60 82 101 131 142 94 33 74 74 98 105 98 87 93 98 104 98 95 89 92 95 90 123 145 134 126 108 87 78 66 54 43 29 31 43 47 42 46 49 54 58 71 75 25 302 304 333 354 354 2 358 329 317 328 16 44 57 66 70 65 66 64 64 56 59 57 43 43 33 15 1 4 356 14 12 13 3 354 354 355 353 356 359 1
57 37 38 41 47 72 111 104 51 34 38 65 59 63 69 74 68 87 91 101 95 91 89 91 116 137 126 95 92 75 60 46 28 23 19 37 40 31 31 35 32 31 28 11 1 356 349 357 346 346 17 41 57 59 65 72 69 57 51 55 61 62 62 62 64 66 60 56 42 27 11 357 356 20 7 7 2 353 354 353 0 349 359 357 20
115 108 63 58 54 58 77 79 72 56 36 37 49 54 47 71 101 85 88 98 105 93 98 96 117 130 128 126 114 92 75 66 34 24 13 24 32 30 42 44 39 26 13 1 340 335 344 348 11 32 55 56 54 60 61 62 70 70 60 55 54 54 64 70 66 61 55 56 48 24 24 11 25 5 6 4 358 351 353 1 8 358 4 6 29
56 39 35 47 71 86 99 125 115 99 91 72 62 38 3 3 51 85 45 21 102 127 115 95 90 100 120 128 119 102 94 92 148 172 68 25 22 49 42 37 21 21 352 329 330 352 11 19 18 26 41 61 68 71 73 74 66 65 68 59 59 62 59 52 59 53 46 45 42 36 26 16 11 7 9 5 356 354 356 10 10 10 359 24 36
82 71 51 66 90 90 89 87 109 124 122 113 97 73 61 60 20 31 39 13 14 13 103 137 151 137 111 65 38 136 147 159 135 132 110 31 32 44 58 52 23 13 342 326 346 24 19 16 17 27 48 62 74 72 77 85 87 76 64 66 69 71 73 74 77 73 52 53 42 36 22 13 8 3 7 3 346 359 4 24 8 9 27 19 23
73 43 52 79 121 118 109 108 105 98 104 112 111 110 94 40 41 39 37 27 12 25 66 99 125 134 123 124 45 41 72 98 103 59 27 26 32 30 27 15 4 344 347 9 35 35 19 19 5 6 42 69 73 75 81 87 89 92 78 66 60 68 73 72 61 62 52 40 23 22 13 14 357 355 3 358 0 16 21 22 23 23 26 15 16
115 94 74 71 108 113 111 120 109 104 91 87 110 120 116 100 49 28 41 37 28 36 51 67 77 91 113 121 123 72 44 59 119 110 60 56 48 23 352 310 316 313 329 314 47 36 26 14 12 19 55 79 82 86 83 86 87 95 100 80 62 59 79 74 5 54 49 37 21 16 18 14 11 15 24 24 36 44 32 30 21 18 13 8 9
134 147 142 65 94 131 134 139 138 133 142 136 135 144 135 134 126 112 52 69 74 64 51 50 59 63 65 50 39 103 135 148 126 63 34 22 353 339 310 239 324 293 271 59 48 41 21 25 45 61 83 97 99 99 98 99 102 100 101 100 88 51 83 129 28 47 35 38 43 42 35 30 28 38 41 36 39 39 34 30 15 17 16 10 1
156 148 150 141 109 100 115 127 131 137 146 164 171 166 167 151 147 147 133 126 98 65 64 55 47 54 49 50 57 77 85 90 83 63 24 349 334 354 360 5 103 216 113 56 77 77 39 52 52 57 69 92 97 97 92 85 86 89 84 71 52 36 31 32 47 47 58 53 55 46 42 38 32 38 33 33 31 36 35 24 15 15 9 1 353
169 164 137 118 121 131 134 132 134 134 126 121 138 160 168 172 159 157 161 165 155 142 140 62 41 53 48 53 61 68 76 78 76 50 13 350 347 337 345 40 29 9 29 39 72 64 49 60 57 45 48 55 48 58 63 55 53 51 47 46 38 37 40 48 55 55 57 60 57 50 44 43 39 39 38 35 30 29 23 18 10 10 5 357 355
109 57 82 110 108 111 110 114 118 112 114 111 102 90 122 159 169 185 173 131 136 133 106 53 29 342 31 78 87 82 84 101 111 102 65 5 349 348 45 34 44 39 47 43 53 56 61 57 58 53 50 53 46 47 45 54 52 57 51 60 64 60 59 59 58 59 55 57 58 55 51 45 37 37 38 47 41 30 23 23 9 3 2 355 354
182 77 80 121 129 120 117 111 98 97 96 87 77 79 67 73 97 120 149 169 147 137 134 114 66 15 352 121 119 95 151 209 165 156 59 9 332 21 80 83 88 74 61 54 53 58 58 46 49 55 50 55 52 49 50 51 47 57 62 63 69 72 72 73 67 63 59 55 47 47 48 43 34 33 37 40 32 25 18 15 6 0 356 352 353
171 134 134 137 128 124 116 114 120 97 80 61 59 56 66 59 91 110 112 123 135 139 144 168 173 152 193 228 149 144 117 264 279 312 318 48 31 59 79 90 85 89 87 74 73 71 71 61 56 59 55 55 55 48 50 48 45 55 63 64 65 72 80 77 73 68 67 62 54 46 48 44 36 33 35 41 30 19 12 4 357 349 346 346 349
134 154 148 139 138 137 132 117 84 95 109 63 47 33 0 44 65 76 74 92 129 154 165 175 172 178 205 164 102 128 93 20 24 337 346 348 36 64 86 95 100 97 91 81 81 79 76 70 63 61 57 54 55 50 53 54 52 56 61 71 72 67 68 69 72 69 69 64 61 53 52 48 38 33 32 33 28 16 4 358 351 349 342 342 343
145 168 163 149 140 141 139 145 158 119 208 183 242 306 4 22 74 86 76 67 80 129 149 163 187 188 154 120 113 101 94 65 0 25 53 11 57 58 73 82 81 81 84 78 72 77 76 67 61 63 56 52 51 53 48 55 55 61 68 76 79 73 67 67 70 72 72 70 65 57 50 48 40 31 28 31 29 13 359 353 348 342 337 337 333
170 176 186 184 169 148 150 149 156 180 224 220 229 167 170 161 144 119 102 95 96 91 98 110 106 96 116 134 145 147 128 127 121 75 36 41 63 73 69 67 72 71 67 74 75 74 76 72 61 60 57 53 51 50 47 46 50 57 71 78 82 81 75 67 66 70 72 69 62 51 37 33 34 27 14 8 14 6 343 342 338 336 331 331 326
180 189 211 223 213 174 183 187 196 190 176 161 154 148 140 126 116 114 109 114 118 121 118 104 109 84 77 92 97 98 104 103 74 70 68 75 77 73 71 67 65 71 71 69 77 84 80 78 70 65 65 58 58 55 53 49 48 61 68 76 81 85 81 74 70 68 69 64 56 43 23 22 25 22 1 358 348 340 335 337 332 332 326 323 321
196 204 204 201 199 203 200 207 200 184 162 156 159 161 151 134 121 107 87 97 128 136 141 141 148 123 74 46 45 47 72 76 88 90 93 93 90 87 88 88 86 86 85 84 79 88 91 89 84 73 80 80 80 78 80 79 81 84 81 79 75 78 86 84 77 74 78 78 65 41 31 25 18 7 347 346 335 330 323 329 329 327 320 314 308
40 259 236 218 211 215 214 203 203 202 194 188 180 171 156 140 126 113 110 103 128 145 154 158 157 143 115 87 76 89 99 101 104 108 109 110 112 111 111 111 104 95 89 87 85 86 88 81 77 68 66 74 77 77 80 86 96 100 100 98 93 87 84 84 76 61 56 47 38 32 17 18 7 359 342 337 331 332 332 331 330 319 314 305 300
62 29 13 288 274 258 239 220 212 214 212 200 164 157 146 138 139 135 130 135 136 146 155 158 159 146 117 88 103 115 120 119 113 106 111 120 124 123 121 114 109 101 94 86 83 84 81 85 85 84 80 64 69 79 80 80 90 101 102 101 97 89 84 74 61 49 41 37 26 23 13 10 355 336 322 317 332 333 325 318 312 312 305 296 298
230 209 205 194 196 234 239 250 229 222 213 174 162 165 158 157 158 155 136 116 119 126 123 122 122 120 122 121 124 119 117 115 117 122 122 122 124 130 129 123 115 108 103 102 95 90 92 87 88 86 90 95 94 100 101 95 89 91 89 87 94 98 92 81 67 61 45 33 33 28 9 356 335 326 329 330 324 319 314 306 305 296 301 306 305
219 225 231 216 176 125 102 74 125 175 175 171 169 169 173 183 178 160 140 137 133 130 130 134 132 131 131 132 130 138 140 131 138 134 135 142 136 130 126 120 112 105 104 103 103 100 92 80 80 86 96 106 102 105 118 115 106 99 97 101 99 90 76 67 67 64 57 51 42 41 356 336 317 312 315 317 314 310 311 307 302 310 313 309 308
192 201 198 179 155 137 139 126 97 79 61 54 69 67 64 54 109 145 135 136 135 140 141 143 142 147 146 155 157 144 147 153 157 162 159 116 108 118 119 119 119 121 115 101 92 90 89 89 86 79 81 73 91 117 127 137 131 116 103 96 97 101 103 100 80 66 29 32 10 352 328 320 307 305 306 309 306 304 305 304 315 311 306 309 311
163 167 163 163 163 167 176 163 130 127 120 105 93 74 58 36 24 35 116 161 159 160 155 152 154 155 156 161 153 150 154 160 158 116 102 120 124 123 125 126 125 124 114 114 115 112 115 118 115 132 133 129 170 131 132 130 112 103 109 115 122 119 112 106 107 76 45 356 332 331 318 302 302 303 305 307 304 300 302 301 305 304 304 307 311
160 157 165 178 201 216 190 143 145 157 163 155 144 145 141 126 162 219 224 232 170 159 155 154 155 152 147 152 152 155 151 124 114 125 128 124 132 137 134 135 136 140 140 146 152 151 152 168 176 171 174 93 56 79 114 123 139 148 146 141 142 138 140 138 137 176 285 309 279 271 260 275 286 297 299 292 292 297 304 300 300 309 312 306 308
209 202 194 188 185 179 167 161 161 167 149 150 169 176 182 181 196 187 180 174 164 172 171 163 157 153 135 110 103 96 92 94 89 90 104 120 132 138 140 142 148 151 161 164 176 184 192 172 101 149 114 103 124 132 133 152 154 166 164 158 161 165 166 166 190 236 248 261 267 262 259 268 300 306 303 299 288 283 298 303 304 300 308 323 325